Atka, AK

1:04 AM HDT on July 24, 2017 (GMT -0900)
Atka

Weather History for PAAK - September, 2013

Change the Weather History Date:

Saturday, September 21, 2013

  Actual Average (PADK) Record (PADK)
Temperature  
Mean Temperature 48 °F -  
Max Temperature 51 °F 50 °F 57 °F (1958)
Min Temperature 46 °F 42 °F 31 °F (1990)
Degree Days  
Heating Degree Days 16    
Moisture  
Dew Point 45 °F    
Average Humidity 84    
Maximum Humidity 93    
Minimum Humidity 76    
Precipitation  
Precipitation 0.00 in - - ()
Sea Level Pressure  
Sea Level Pressure 29.93 in    
Wind  
Wind Speed 18 mph (West)    
Max Wind Speed 25 mph    
Max Gust Speed 33 mph    
Visibility 10 miles    
Events      
Averages and records for this station are not official NWS values.
T = Trace of Precipitation, MM = Missing Value Source: NWS Daily Summary

Daily Weather History Graph

Daily Weather History Graph

Search for Another Location

Airport or City:

Trip Planner

Search our weather history database for the weather conditions in past years. The results will help you decide how hot, cold, wet, or windy it might be!

Date:

Astronomy

Sep. 21, 2013 Rise Set
Actual Time 8:22 AM HDT 8:36 PM HDT
Civil Twilight 7:48 AM HDT 9:10 PM HDT
Nautical Twilight 7:07 AM HDT 9:50 PM HDT
Astronomical Twilight 6:25 AM HDT 10:32 PM HDT
Moon 9:29 PM HDT (9/21) 11:19 AM HDT (9/21)
Length of Visible Light 13h 21m
Length of Day
12h 14m
Waning Gibbous, 93% of the Moon is Illuminated
Sep 21
Waning Gibbous
Sep 26
Last Quarter
Oct 4
New
Oct 11
First Quarter
Oct 18
Full

Hourly Weather History & Observations

Time (HDT) Temp. Windchill Dew Point Humidity Pressure Visibility Wind Dir Wind Speed Gust Speed Precip Events Conditions
12:16 AM 48.2 °F - 44.6 °F 87% 29.74 in 10.0 mi WNW 18.4 mph 24.2 mph N/A   Overcast
12:36 AM 48.2 °F - 44.6 °F 87% 29.74 in 10.0 mi West 23.0 mph 32.2 mph N/A   Overcast
12:56 AM 48.2 °F - 44.6 °F 87% 29.75 in 10.0 mi West 25.3 mph 32.2 mph N/A   Overcast
1:16 AM 48.2 °F - 44.6 °F 87% 29.76 in 10.0 mi West 19.6 mph 29.9 mph N/A   Overcast
1:36 AM 48.2 °F - 44.6 °F 87% 29.76 in 10.0 mi WNW 20.7 mph 28.8 mph N/A   Overcast
1:56 AM 48.2 °F - 44.6 °F 87% 29.77 in 10.0 mi WNW 21.9 mph 27.6 mph N/A   Overcast
2:16 AM 48.2 °F - 44.6 °F 87% 29.77 in 10.0 mi WNW 20.7 mph 26.5 mph N/A   Overcast
2:36 AM 48.2 °F - 44.6 °F 87% 29.78 in 10.0 mi West 23.0 mph 29.9 mph N/A   Overcast
2:56 AM 48.2 °F - 44.6 °F 87% 29.79 in 10.0 mi West 20.7 mph 32.2 mph N/A   Overcast
3:16 AM 48.2 °F - 44.6 °F 87% 29.80 in 10.0 mi West 19.6 mph 32.2 mph N/A   Mostly Cloudy
3:36 AM 48.2 °F - 44.6 °F 87% 29.81 in 10.0 mi West 20.7 mph 27.6 mph N/A   Overcast
3:56 AM 48.2 °F - 44.6 °F 87% 29.82 in 10.0 mi West 20.7 mph 31.1 mph N/A   Overcast
4:16 AM 48.2 °F - 44.6 °F 87% 29.83 in 10.0 mi West 20.7 mph 33.4 mph N/A   Overcast
4:36 AM 48.2 °F - 44.6 °F 87% 29.83 in 10.0 mi West 23.0 mph 32.2 mph N/A   Overcast
4:56 AM 48.2 °F - 44.6 °F 87% 29.84 in 9.0 mi WNW 20.7 mph 27.6 mph N/A   Overcast
5:16 AM 48.2 °F - 44.6 °F 87% 29.85 in 8.0 mi West 20.7 mph 27.6 mph N/A   Overcast
5:36 AM 48.2 °F - 44.6 °F 87% 29.85 in 8.0 mi WNW 20.7 mph 26.5 mph N/A   Overcast
5:56 AM 48.2 °F - 44.6 °F 87% 29.86 in 8.0 mi West 18.4 mph 25.3 mph N/A   Overcast
6:16 AM 48.2 °F - 44.6 °F 87% 29.86 in 10.0 mi WNW 20.7 mph 26.5 mph N/A   Overcast
6:36 AM 48.2 °F - 44.6 °F 87% 29.86 in 8.0 mi West 21.9 mph 27.6 mph N/A   Overcast
6:56 AM 48.2 °F - 44.6 °F 87% 29.87 in 8.0 mi West 18.4 mph 24.2 mph N/A   Overcast
7:16 AM 48.2 °F - 44.6 °F 87% 29.87 in 8.0 mi West 18.4 mph 26.5 mph N/A   Mostly Cloudy
7:36 AM 48.2 °F - 44.6 °F 87% 29.87 in 7.0 mi West 20.7 mph 25.3 mph N/A   Overcast
7:56 AM 48.2 °F - 44.6 °F 87% 29.87 in 9.0 mi West 18.4 mph 24.2 mph N/A   Overcast
8:16 AM 48.2 °F - 44.6 °F 87% 29.89 in 10.0 mi West 17.3 mph 26.5 mph N/A   Overcast
8:36 AM 48.2 °F - 44.6 °F 87% 29.90 in 9.0 mi West 16.1 mph 23.0 mph N/A   Overcast
8:56 AM 48.2 °F - 44.6 °F 87% 29.91 in 9.0 mi West 19.6 mph 26.5 mph N/A   Overcast
9:16 AM 48.2 °F - 44.6 °F 87% 29.92 in 10.0 mi West 18.4 mph 28.8 mph N/A   Overcast
9:36 AM 48.2 °F - 44.6 °F 87% 29.92 in 10.0 mi West 19.6 mph 27.6 mph N/A   Overcast
9:56 AM 48.2 °F - 44.6 °F 87% 29.92 in 10.0 mi West 19.6 mph 27.6 mph N/A   Overcast
10:16 AM 50.0 °F - 44.6 °F 82% 29.93 in 10.0 mi West 20.7 mph 27.6 mph N/A   Overcast
10:36 AM 48.2 °F - 44.6 °F 87% 29.93 in 10.0 mi West 20.7 mph 31.1 mph N/A   Overcast
10:56 AM 48.2 °F - 44.6 °F 87% 29.94 in 10.0 mi West 17.3 mph 24.2 mph N/A   Overcast
11:16 AM 48.2 °F - 44.6 °F 87% 29.95 in 10.0 mi West 16.1 mph 24.2 mph N/A   Overcast
11:36 AM 50.0 °F - 44.6 °F 82% 29.96 in 10.0 mi West 19.6 mph 26.5 mph N/A   Overcast
11:56 AM 51.8 °F - 44.6 °F 76% 29.97 in 10.0 mi West 23.0 mph 27.6 mph N/A   Overcast
12:16 PM 51.8 °F - 44.6 °F 76% 29.97 in 10.0 mi West 20.7 mph 32.2 mph N/A   Overcast
12:36 PM 51.8 °F - 44.6 °F 76% 29.97 in 10.0 mi West 24.2 mph 31.1 mph N/A   Overcast
12:56 PM 51.8 °F - 44.6 °F 76% 29.98 in 10.0 mi West 17.3 mph 29.9 mph N/A   Overcast
1:16 PM 51.8 °F - 44.6 °F 76% 29.98 in 10.0 mi West 16.1 mph 27.6 mph N/A   Overcast
1:36 PM 51.8 °F - 44.6 °F 76% 29.99 in 10.0 mi West 17.3 mph 28.8 mph N/A   Overcast
1:56 PM 51.8 °F - 44.6 °F 76% 29.99 in 10.0 mi West 21.9 mph 27.6 mph N/A   Overcast
2:16 PM 51.8 °F - 44.6 °F 76% 29.99 in 10.0 mi West 20.7 mph 28.8 mph N/A   Overcast
2:36 PM 51.8 °F - 46.4 °F 82% 30.00 in 10.0 mi West 18.4 mph 24.2 mph N/A   Overcast
2:56 PM 51.8 °F - 44.6 °F 76% 30.00 in 10.0 mi West 17.3 mph - N/A   Mostly Cloudy
3:16 PM 51.8 °F - 44.6 °F 76% 29.99 in 10.0 mi West 19.6 mph 24.2 mph N/A   Mostly Cloudy
3:36 PM 51.8 °F - 46.4 °F 82% 29.99 in 10.0 mi West 17.3 mph 24.2 mph N/A   Mostly Cloudy
3:56 PM 51.8 °F - 46.4 °F 82% 29.99 in 10.0 mi WNW 15.0 mph 20.7 mph N/A   Mostly Cloudy
4:16 PM 51.8 °F - 44.6 °F 76% 30.00 in 10.0 mi West 17.3 mph - N/A   Mostly Cloudy
4:36 PM 51.8 °F - 44.6 °F 76% 30.00 in 10.0 mi West 20.7 mph 24.2 mph N/A   Partly Cloudy
4:56 PM 50.0 °F - 44.6 °F 82% 30.00 in 10.0 mi West 19.6 mph 26.5 mph N/A   Mostly Cloudy
5:16 PM 50.0 °F - 44.6 °F 82% 30.01 in 10.0 mi West 17.3 mph 24.2 mph N/A   Overcast
5:36 PM 50.0 °F - 44.6 °F 82% 30.01 in 10.0 mi West 16.1 mph 21.9 mph N/A   Mostly Cloudy
5:56 PM 50.0 °F - 44.6 °F 82% 30.01 in 10.0 mi West 17.3 mph 23.0 mph N/A   Overcast
6:16 PM 50.0 °F - 44.6 °F 82% 30.01 in 10.0 mi West 15.0 mph - N/A   Scattered Clouds
6:36 PM 50.0 °F - 44.6 °F 82% 30.01 in 10.0 mi WNW 11.5 mph - N/A   Mostly Cloudy
6:56 PM 48.2 °F - 44.6 °F 87% 30.01 in 10.0 mi WNW 13.8 mph - N/A   Overcast
7:16 PM 48.2 °F - 44.6 °F 87% 30.02 in 10.0 mi West 9.2 mph - N/A   Overcast
7:36 PM 48.2 °F - 44.6 °F 87% 30.02 in 10.0 mi West 9.2 mph - N/A   Overcast
7:56 PM 48.2 °F - 44.6 °F 87% 30.02 in 10.0 mi West 10.4 mph - N/A   Overcast
8:16 PM 48.2 °F - 44.6 °F 87% 30.02 in 10.0 mi West 8.1 mph - N/A   Overcast
8:36 PM 48.2 °F - 44.6 °F 87% 30.01 in 10.0 mi West 6.9 mph - N/A   Overcast
8:56 PM 48.2 °F - 44.6 °F 87% 30.02 in 10.0 mi WNW 5.8 mph - N/A   Overcast
9:16 PM 48.2 °F - 44.6 °F 87% 30.01 in 10.0 mi NW 3.5 mph - N/A   Overcast
9:36 PM 48.2 °F - 44.6 °F 87% 30.01 in 10.0 mi WNW 4.6 mph - N/A   Overcast
9:56 PM 48.2 °F - 44.6 °F 87% 30.01 in 10.0 mi West 6.9 mph - N/A   Overcast
10:16 PM 46.4 °F 44.3 °F 44.6 °F 93% 30.01 in 10.0 mi West 4.6 mph - N/A   Overcast
10:36 PM 46.4 °F - 42.8 °F 87% 30.02 in 10.0 mi Calm Calm - N/A   Overcast
10:56 PM 46.4 °F - 42.8 °F 87% 30.01 in 10.0 mi Calm Calm - N/A   Overcast
11:16 PM 46.4 °F - 42.8 °F 87% 30.01 in 10.0 mi Calm Calm - N/A   Overcast
11:36 PM 46.4 °F - 42.8 °F 87% 30.00 in 10.0 mi Calm Calm - N/A   Overcast
11:56 PM 46.4 °F - 42.8 °F 87% 29.99 in 10.0 mi Calm Calm - N/A   Overcast